Time,TemperatureF,DewpointF,PressureIn,WindDirection,WindDirectionDegrees,WindSpeedMPH,WindSpeedGustMPH,Humidity,HourlyPrecipIn,Conditions,Clouds,dailyrainin,SoftwareType,DateUTC
2013-09-05 00:01:00,57.9,53.3,30.38,ESE,112,2.0,0.0,84,0.00,,CLR,0.00,VWS V13.01,2013-09-05 04:01:00,
2013-09-05 00:02:00,57.9,53.1,30.38,ESE,112,2.0,0.0,84,0.00,,CLR,0.00,VWS V13.01,2013-09-05 04:02:00,
2013-09-05 00:07:00,57.9,53.1,30.38,ESE,112,2.0,0.0,84,0.00,,CLR,0.00,VWS V13.01,2013-09-05 04:07:00,
2013-09-05 00:13:00,57.9,53.1,30.38,ESE,112,2.0,0.0,84,0.00,,CLR,0.00,VWS V13.01,2013-09-05 04:13:00,
2013-09-05 00:18:00,57.9,53.1,30.38,ESE,112,2.0,0.0,84,0.00,,CLR,0.00,VWS V13.01,2013-09-05 04:18:00,
2013-09-05 00:23:00,57.9,53.4,30.38,ESE,112,2.0,0.0,85,0.00,,CLR,0.00,VWS V13.01,2013-09-05 04:23:00,
2013-09-05 00:28:00,57.7,53.4,30.38,ESE,112,2.0,0.0,85,0.00,,CLR,0.00,VWS V13.01,2013-09-05 04:28:00,
2013-09-05 00:33:00,57.7,53.0,30.39,ESE,112,57.0,0.0,85,0.00,,CLR,0.00,VWS V13.01,2013-09-05 04:33:00,
2013-09-05 00:38:00,57.5,52.8,30.38,ESE,112,57.0,0.0,85,0.00,,CLR,0.00,VWS V13.01,2013-09-05 04:38:00,
2013-09-05 00:43:00,57.5,52.8,30.38,ESE,112,57.0,0.0,85,0.00,,CLR,0.00,VWS V13.01,2013-09-05 04:43:00,
2013-09-05 00:48:00,57.3,52.7,30.38,ESE,112,57.0,0.0,85,0.00,,CLR,0.00,VWS V13.01,2013-09-05 04:48:00,
2013-09-05 00:53:00,57.3,52.5,30.38,ESE,112,57.0,0.0,85,0.00,,CLR,0.00,VWS V13.01,2013-09-05 04:53:00,
2013-09-05 00:58:00,57.0,52.9,30.38,ESE,112,57.0,0.0,85,0.00,,CLR,0.00,VWS V13.01,2013-09-05 04:58:00,
2013-09-05 01:03:00,57.0,52.3,30.39,ESE,112,57.0,0.0,86,0.00,,CLR,0.00,VWS V13.01,2013-09-05 05:03:00,
2013-09-05 01:08:00,56.8,52.3,30.38,ESE,112,57.0,0.0,85,0.00,,CLR,0.00,VWS V13.01,2013-09-05 05:08:00,
2013-09-05 01:13:00,56.8,52.7,30.39,ESE,112,57.0,0.0,85,0.00,,CLR,0.00,VWS V13.01,2013-09-05 05:13:00,
2013-09-05 01:18:00,56.8,52.7,30.38,ESE,112,57.0,0.0,85,0.00,,CLR,0.00,VWS V13.01,2013-09-05 05:18:00,
2013-09-05 01:23:00,56.8,52.3,30.38,ESE,112,57.0,0.0,86,0.00,,CLR,0.00,VWS V13.01,2013-09-05 05:23:00,
2013-09-05 01:28:00,56.8,52.3,30.38,ESE,112,57.0,0.0,86,0.00,,CLR,0.00,VWS V13.01,2013-09-05 05:28:00,
2013-09-05 01:33:00,56.4,52.2,30.38,ESE,112,57.0,0.0,86,0.00,,CLR,0.00,VWS V13.01,2013-09-05 05:33:00,
2013-09-05 01:38:00,56.3,52.0,30.38,ESE,112,57.0,0.0,86,0.00,,CLR,0.00,VWS V13.01,2013-09-05 05:38:00,
2013-09-05 01:43:00,56.1,52.0,30.38,ESE,112,57.0,0.0,86,0.00,,CLR,0.00,VWS V13.01,2013-09-05 05:43:00,
2013-09-05 01:48:00,55.9,52.0,30.38,ESE,112,57.0,0.0,86,0.00,,CLR,0.00,VWS V13.01,2013-09-05 05:48:00,
2013-09-05 01:53:00,55.9,51.8,30.37,SE,135,57.0,0.0,86,0.00,,CLR,0.00,VWS V13.01,2013-09-05 05:53:00,
2013-09-05 01:58:00,55.9,51.8,30.37,SE,135,57.0,0.0,86,0.00,,CLR,0.00,VWS V13.01,2013-09-05 05:58:00,
2013-09-05 02:03:00,55.9,52.3,30.37,SE,135,57.0,0.0,86,0.00,,CLR,0.00,VWS V13.01,2013-09-05 06:03:00,
2013-09-05 02:08:00,56.1,52.3,30.37,SE,135,57.0,0.0,87,0.00,,CLR,0.00,VWS V13.01,2013-09-05 06:08:00,
2013-09-05 02:13:00,56.1,52.3,30.37,SE,135,57.0,0.0,87,0.00,,CLR,0.00,VWS V13.01,2013-09-05 06:13:00,
2013-09-05 02:18:00,56.1,52.1,30.37,SE,135,57.0,0.0,87,0.00,,CLR,0.00,VWS V13.01,2013-09-05 06:18:00,
2013-09-05 02:23:00,55.9,52.1,30.37,SE,135,57.0,0.0,87,0.00,,CLR,0.00,VWS V13.01,2013-09-05 06:23:00,
2013-09-05 02:28:00,55.9,51.7,30.37,SE,135,57.0,0.0,87,0.00,,CLR,0.00,VWS V13.01,2013-09-05 06:28:00,
2013-09-05 02:33:00,55.4,51.7,30.37,SE,135,57.0,0.0,87,0.00,,CLR,0.00,VWS V13.01,2013-09-05 06:33:00,
2013-09-05 02:38:00,55.2,51.6,30.37,SE,135,57.0,0.0,87,0.00,,CLR,0.00,VWS V13.01,2013-09-05 06:38:00,
2013-09-05 02:43:00,55.2,51.2,30.37,SE,135,57.0,0.0,87,0.00,,CLR,0.00,VWS V13.01,2013-09-05 06:43:00,
2013-09-05 02:48:00,55.2,51.0,30.37,SE,135,57.0,0.0,87,0.00,,CLR,0.00,VWS V13.01,2013-09-05 06:48:00,
2013-09-05 02:53:00,54.6,51.0,30.37,North,0,57.0,0.0,87,0.00,,CLR,0.00,VWS V13.01,2013-09-05 06:53:00,
2013-09-05 03:02:00,54.3,50.5,30.37,SE,135,57.0,0.0,87,0.00,,CLR,0.00,VWS V13.01,2013-09-05 07:02:00,
2013-09-05 03:07:00,54.3,50.5,30.37,SE,135,57.0,0.0,87,0.00,,CLR,0.00,VWS V13.01,2013-09-05 07:07:00,
2013-09-05 03:12:00,54.1,50.5,30.37,SE,135,57.0,0.0,87,0.00,,CLR,0.00,VWS V13.01,2013-09-05 07:12:00,
2013-09-05 03:17:00,54.3,50.3,30.37,North,0,57.0,0.0,87,0.00,,CLR,0.00,VWS V13.01,2013-09-05 07:17:00,
2013-09-05 03:22:00,54.1,50.3,30.37,SE,135,57.0,0.0,87,0.00,,CLR,0.00,VWS V13.01,2013-09-05 07:22:00,
2013-09-05 03:27:00,54.1,50.3,30.37,SE,135,57.0,0.0,87,0.00,,CLR,0.00,VWS V13.01,2013-09-05 07:27:00,
2013-09-05 03:32:00,53.9,50.1,30.38,SE,135,57.0,0.0,87,0.00,,CLR,0.00,VWS V13.01,2013-09-05 07:32:00,
2013-09-05 03:37:00,53.9,50.1,30.38,SE,135,57.0,0.0,87,0.00,,CLR,0.00,VWS V13.01,2013-09-05 07:37:00,
2013-09-05 03:42:00,53.9,49.9,30.38,SE,135,57.0,0.0,87,0.00,,CLR,0.00,VWS V13.01,2013-09-05 07:42:00,
2013-09-05 03:47:00,53.9,49.9,30.38,SE,135,57.0,0.0,87,0.00,,CLR,0.00,VWS V13.01,2013-09-05 07:47:00,
2013-09-05 03:52:00,53.7,49.9,30.38,SE,135,57.0,0.0,87,0.00,,CLR,0.00,VWS V13.01,2013-09-05 07:52:00,
2013-09-05 03:57:00,53.7,50.1,30.37,SE,135,57.0,0.0,87,0.00,,CLR,0.00,VWS V13.01,2013-09-05 07:57:00,
2013-09-05 04:02:00,53.6,50.1,30.38,SE,135,57.0,0.0,88,0.00,,,0.00,VWS V13.01,2013-09-05 08:02:00,
2013-09-05 04:07:00,53.4,49.9,30.37,SE,135,57.0,0.0,88,0.00,,,0.00,VWS V13.01,2013-09-05 08:07:00,
2013-09-05 04:12:00,53.4,49.9,30.38,SE,135,57.0,0.0,88,0.00,,,0.00,VWS V13.01,2013-09-05 08:12:00,
2013-09-05 04:17:00,53.4,49.7,30.37,SE,135,57.0,0.0,88,0.00,,,0.00,VWS V13.01,2013-09-05 08:17:00,
2013-09-05 04:22:00,53.2,49.7,30.37,SE,135,57.0,0.0,88,0.00,,,0.00,VWS V13.01,2013-09-05 08:22:00,
2013-09-05 04:27:00,53.2,49.7,30.37,SE,135,57.0,0.0,88,0.00,,,0.00,VWS V13.01,2013-09-05 08:27:00,
2013-09-05 04:32:00,53.2,49.7,30.37,SE,135,57.0,0.0,88,0.00,,,0.00,VWS V13.01,2013-09-05 08:32:00,
2013-09-05 04:37:00,53.2,49.7,30.37,SE,135,57.0,0.0,88,0.00,,,0.00,VWS V13.01,2013-09-05 08:37:00,
2013-09-05 04:42:00,53.2,49.7,30.37,North,0,57.0,0.0,88,0.00,,,0.00,VWS V13.01,2013-09-05 08:42:00,
2013-09-05 04:47:00,53.2,49.9,30.37,SE,135,57.0,0.0,88,0.00,,,0.00,VWS V13.01,2013-09-05 08:47:00,
2013-09-05 04:52:00,53.2,49.9,30.37,SE,135,57.0,0.0,88,0.00,,,0.00,VWS V13.01,2013-09-05 08:52:00,
2013-09-05 04:57:00,53.4,49.7,30.37,SE,135,57.0,0.0,88,0.00,,,0.00,VWS V13.01,2013-09-05 08:57:00,
2013-09-05 05:02:00,53.4,49.9,30.37,SE,135,57.0,0.0,88,0.00,,,0.00,VWS V13.01,2013-09-05 09:02:00,
2013-09-05 05:07:00,53.4,49.9,30.36,SE,135,57.0,0.0,88,0.00,,,0.00,VWS V13.01,2013-09-05 09:07:00,
2013-09-05 05:12:00,53.4,49.9,30.37,SE,135,57.0,0.0,88,0.00,,,0.00,VWS V13.01,2013-09-05 09:12:00,
2013-09-05 05:17:00,53.4,49.7,30.37,SE,135,57.0,0.0,88,0.00,,,0.00,VWS V13.01,2013-09-05 09:17:00,
2013-09-05 05:22:00,53.2,49.7,30.37,SE,135,57.0,0.0,89,0.00,,,0.00,VWS V13.01,2013-09-05 09:22:00,
2013-09-05 05:28:00,53.2,50.0,30.38,SE,135,57.0,0.0,88,0.00,,,0.00,VWS V13.01,2013-09-05 09:28:00,
2013-09-05 05:33:00,53.2,49.7,30.37,SE,135,57.0,0.0,88,0.00,,,0.00,VWS V13.01,2013-09-05 09:33:00,
2013-09-05 05:38:00,53.2,49.7,30.38,SE,135,57.0,0.0,88,0.00,,,0.00,VWS V13.01,2013-09-05 09:38:00,
2013-09-05 05:43:00,53.2,49.5,30.38,SE,135,57.0,0.0,88,0.00,,,0.00,VWS V13.01,2013-09-05 09:43:00,
2013-09-05 05:48:00,52.7,49.5,30.38,SE,135,57.0,0.0,89,0.00,,,0.00,VWS V13.01,2013-09-05 09:48:00,
2013-09-05 05:53:00,52.7,49.4,30.38,SE,135,57.0,0.0,89,0.00,,,0.00,VWS V13.01,2013-09-05 09:53:00,
2013-09-05 06:01:00,52.3,49.2,30.38,SE,135,57.0,0.0,89,0.00,,,0.00,VWS V13.01,2013-09-05 10:01:00,
2013-09-05 06:06:00,52.3,49.2,30.38,SE,135,57.0,0.0,89,0.00,,,0.00,VWS V13.01,2013-09-05 10:06:00,
2013-09-05 06:11:00,52.3,49.0,30.38,SE,135,57.0,0.0,89,0.00,,,0.00,VWS V13.01,2013-09-05 10:11:00,
2013-09-05 06:16:00,52.1,49.0,30.38,SE,135,57.0,0.0,89,0.00,,,0.00,VWS V13.01,2013-09-05 10:16:00,
2013-09-05 06:21:00,52.1,49.0,30.38,SE,135,57.0,0.0,89,0.00,,,0.00,VWS V13.01,2013-09-05 10:21:00,
2013-09-05 06:26:00,51.9,48.8,30.38,SE,135,57.0,0.0,89,0.00,,,0.00,VWS V13.01,2013-09-05 10:26:00,
2013-09-05 06:31:00,51.9,48.8,30.38,SE,135,57.0,0.0,89,0.00,,,0.00,VWS V13.01,2013-09-05 10:31:00,
2013-09-05 06:36:00,51.9,48.8,30.38,SE,135,57.0,0.0,89,0.00,,,0.00,VWS V13.01,2013-09-05 10:36:00,
2013-09-05 06:41:00,51.9,48.7,30.38,SE,135,57.0,0.0,89,0.00,,,0.00,VWS V13.01,2013-09-05 10:41:00,
2013-09-05 06:46:00,51.8,48.7,30.38,SE,135,57.0,0.0,89,0.00,,,0.00,VWS V13.01,2013-09-05 10:46:00,
2013-09-05 06:51:00,51.8,48.5,30.38,SE,135,57.0,0.0,89,0.00,,,0.00,VWS V13.01,2013-09-05 10:51:00,
2013-09-05 06:56:00,51.8,48.7,30.38,SE,135,57.0,0.0,89,0.00,,,0.00,VWS V13.01,2013-09-05 10:56:00,
2013-09-05 07:01:00,51.8,48.5,30.38,SE,135,57.0,0.0,89,0.00,,,0.00,VWS V13.01,2013-09-05 11:01:00,
2013-09-05 07:06:00,51.6,48.5,30.38,SE,135,57.0,0.0,89,0.00,,,0.00,VWS V13.01,2013-09-05 11:06:00,
2013-09-05 07:11:00,51.6,48.5,30.38,SE,135,57.0,0.0,89,0.00,,,0.00,VWS V13.01,2013-09-05 11:11:00,
2013-09-05 07:16:00,51.6,48.5,30.38,SE,135,57.0,0.0,89,0.00,,,0.00,VWS V13.01,2013-09-05 11:16:00,
2013-09-05 07:21:00,51.8,48.8,30.38,SE,135,57.0,0.0,89,0.00,,,0.00,VWS V13.01,2013-09-05 11:21:00,
2013-09-05 07:26:00,51.9,48.7,30.39,SE,135,57.0,0.0,89,0.00,,,0.00,VWS V13.01,2013-09-05 11:26:00,
2013-09-05 07:31:00,51.9,48.8,30.39,SE,135,57.0,0.0,89,0.00,,,0.00,VWS V13.01,2013-09-05 11:31:00,
2013-09-05 07:36:00,51.9,48.8,30.38,SE,135,57.0,0.0,89,0.00,,,0.00,VWS V13.01,2013-09-05 11:36:00,
2013-09-05 07:41:00,52.1,48.8,30.39,SE,135,57.0,0.0,89,0.00,,,0.00,VWS V13.01,2013-09-05 11:41:00,
2013-09-05 07:46:00,52.3,49.0,30.39,SE,135,57.0,0.0,89,0.00,,,0.00,VWS V13.01,2013-09-05 11:46:00,
2013-09-05 07:52:00,52.3,49.2,30.39,SE,135,57.0,0.0,89,0.00,,,0.00,VWS V13.01,2013-09-05 11:52:00,
2013-09-05 07:57:00,52.3,49.2,30.39,SE,135,57.0,0.0,89,0.00,,,0.00,VWS V13.01,2013-09-05 11:57:00,
2013-09-05 08:02:00,52.3,49.2,30.39,SE,135,57.0,0.0,89,0.00,,,0.00,VWS V13.01,2013-09-05 12:02:00,
2013-09-05 08:07:00,52.5,49.2,30.39,SE,135,57.0,0.0,89,0.00,,,0.00,VWS V13.01,2013-09-05 12:07:00,
2013-09-05 08:12:00,52.5,49.5,30.39,SE,135,57.0,0.0,89,0.00,,,0.00,VWS V13.01,2013-09-05 12:12:00,
2013-09-05 08:17:00,52.7,49.5,30.39,WSW,248,57.0,0.0,89,0.00,,,0.00,VWS V13.01,2013-09-05 12:17:00,
2013-09-05 08:22:00,52.7,49.5,30.39,WSW,248,57.0,0.0,89,0.00,,,0.00,VWS V13.01,2013-09-05 12:22:00,
2013-09-05 08:27:00,52.7,49.7,30.39,WSW,248,57.0,0.0,89,0.00,,,0.00,VWS V13.01,2013-09-05 12:27:00,
2013-09-05 08:32:00,53.0,49.7,30.39,WSW,248,57.0,0.0,89,0.00,,,0.00,VWS V13.01,2013-09-05 12:32:00,
2013-09-05 08:37:00,53.2,50.0,30.39,WSW,248,57.0,0.0,89,0.00,,,0.00,VWS V13.01,2013-09-05 12:37:00,
2013-09-05 08:42:00,53.2,50.2,30.39,WSW,248,57.0,0.0,89,0.00,,,0.00,VWS V13.01,2013-09-05 12:42:00,
2013-09-05 08:47:00,53.7,50.4,30.39,WSW,248,57.0,0.0,90,0.00,,,0.00,VWS V13.01,2013-09-05 12:47:00,
2013-09-05 08:52:00,53.9,51.2,30.39,WSW,248,57.0,0.0,90,0.00,,,0.00,VWS V13.01,2013-09-05 12:52:00,
2013-09-05 08:57:00,54.3,51.0,30.40,West,270,57.0,0.0,90,0.00,,,0.00,VWS V13.01,2013-09-05 12:57:00,
2013-09-05 09:02:00,54.3,51.6,30.40,WSW,248,57.0,0.0,90,0.00,,,0.00,VWS V13.01,2013-09-05 13:02:00,
2013-09-05 09:07:00,54.6,51.7,30.40,WSW,248,57.0,0.0,90,0.00,,,0.00,VWS V13.01,2013-09-05 13:07:00,
2013-09-05 09:12:00,54.8,51.7,30.40,WSW,248,57.0,0.0,90,0.00,,,0.00,VWS V13.01,2013-09-05 13:12:00,
2013-09-05 09:17:00,55.2,52.1,30.40,West,270,57.0,0.0,90,0.00,,,0.00,VWS V13.01,2013-09-05 13:17:00,
2013-09-05 09:22:00,55.2,52.3,30.41,SSW,202,3.3,0.0,90,0.00,,,0.00,VWS V13.01,2013-09-05 13:22:00,
2013-09-05 09:27:00,55.5,52.5,30.41,SSW,202,3.3,0.0,90,0.00,,,0.00,VWS V13.01,2013-09-05 13:27:00,
2013-09-05 09:32:00,55.7,52.5,30.41,South,180,3.3,0.0,90,0.00,,,0.00,VWS V13.01,2013-09-05 13:32:00,
2013-09-05 09:37:00,56.1,53.0,30.41,WSW,248,3.3,0.0,90,0.00,,,0.00,VWS V13.01,2013-09-05 13:37:00,
2013-09-05 09:43:00,56.4,53.2,30.41,West,270,3.3,0.0,90,0.00,,,0.00,VWS V13.01,2013-09-05 13:43:00,
2013-09-05 09:48:00,56.4,53.2,30.41,WSW,248,2.9,0.0,90,0.00,,,0.00,VWS V13.01,2013-09-05 13:48:00,
2013-09-05 09:53:00,57.0,53.9,30.41,WSW,248,2.9,0.0,90,0.00,,,0.00,VWS V13.01,2013-09-05 13:53:00,
2013-09-05 09:58:00,57.0,54.3,30.41,WSW,248,2.9,0.0,90,0.00,,,0.00,VWS V13.01,2013-09-05 13:58:00,
2013-09-05 10:03:00,57.5,54.4,30.40,West,270,1.3,0.0,90,0.00,,,0.00,VWS V13.01,2013-09-05 14:03:00,
2013-09-05 10:08:00,57.7,55.0,30.40,WSW,248,2.4,0.0,90,0.00,,,0.00,VWS V13.01,2013-09-05 14:08:00,
2013-09-05 10:13:00,57.7,55.3,30.40,WNW,292,0.4,0.0,90,0.00,,,0.00,VWS V13.01,2013-09-05 14:13:00,
2013-09-05 10:18:00,58.4,55.6,30.41,SSW,202,1.1,0.0,89,0.00,,,0.00,VWS V13.01,2013-09-05 14:18:00,
2013-09-05 10:23:00,58.8,56.1,30.40,WSW,248,1.1,0.0,89,0.00,,,0.00,VWS V13.01,2013-09-05 14:23:00,
2013-09-05 10:28:00,59.0,56.6,30.40,SSW,202,0.6,0.0,90,0.00,,,0.00,VWS V13.01,2013-09-05 14:28:00,
2013-09-05 10:33:00,59.5,57.0,30.41,SSW,202,1.1,0.0,90,0.00,,,0.00,VWS V13.01,2013-09-05 14:33:00,
2013-09-05 10:38:00,59.9,57.0,30.41,WSW,248,57.0,0.0,90,0.00,,,0.00,VWS V13.01,2013-09-05 14:38:00,
2013-09-05 10:43:00,59.9,57.3,30.41,SW,225,0.4,0.0,90,0.00,,SCT003,0.00,VWS V13.01,2013-09-05 14:43:00,
2013-09-05 10:48:00,60.9,57.8,30.41,SW,225,0.8,0.0,89,0.00,,SCT003,0.00,VWS V13.01,2013-09-05 14:48:00,
2013-09-05 10:53:00,61.3,58.1,30.41,SW,225,0.8,0.0,89,0.00,,SCT003,0.00,VWS V13.01,2013-09-05 14:53:00,
2013-09-05 10:58:00,61.3,58.8,30.41,NW,315,0.8,0.0,89,0.00,,SCT003,0.00,VWS V13.01,2013-09-05 14:58:00,
2013-09-05 11:03:00,62.4,59.3,30.41,WSW,248,2.2,0.0,88,0.00,,CLR,0.00,VWS V13.01,2013-09-05 15:03:00,
2013-09-05 11:08:00,63.1,59.6,30.41,West,270,0.6,0.0,87,0.00,,CLR,0.00,VWS V13.01,2013-09-05 15:08:00,
2013-09-05 11:13:00,63.6,59.7,30.41,WSW,248,2.4,0.0,87,0.00,,CLR,0.00,VWS V13.01,2013-09-05 15:13:00,
2013-09-05 11:18:00,64.2,60.4,30.41,WSW,248,2.0,0.0,86,0.00,,CLR,0.00,VWS V13.01,2013-09-05 15:18:00,
2013-09-05 11:23:00,64.7,60.5,30.41,WSW,248,0.6,0.0,86,0.00,,CLR,0.00,VWS V13.01,2013-09-05 15:23:00,
2013-09-05 11:28:00,64.7,61.0,30.41,WSW,248,57.0,0.0,86,0.00,,CLR,0.00,VWS V13.01,2013-09-05 15:28:00,
2013-09-05 11:33:00,64.7,61.6,30.41,NNW,338,4.0,0.0,86,0.00,,CLR,0.00,VWS V13.01,2013-09-05 15:33:00,
2013-09-05 11:38:00,67.1,62.1,30.41,NW,315,0.8,0.0,83,0.00,,CLR,0.00,VWS V13.01,2013-09-05 15:38:00,
2013-09-05 11:43:00,67.1,61.7,30.41,NW,315,3.3,0.0,83,0.00,,CLR,0.00,VWS V13.01,2013-09-05 15:43:00,
2013-09-05 11:48:00,67.1,61.8,30.40,WNW,292,1.1,0.0,83,0.00,,CLR,0.00,VWS V13.01,2013-09-05 15:48:00,
2013-09-05 11:53:00,69.0,61.9,30.40,NW,315,2.0,0.0,78,0.00,,CLR,0.00,VWS V13.01,2013-09-05 15:53:00,
2013-09-05 11:58:00,69.4,62.4,30.40,NNW,338,5.8,0.0,77,0.00,,CLR,0.00,VWS V13.01,2013-09-05 15:58:00,
2013-09-05 12:03:00,69.9,63.0,30.40,NNW,338,1.1,0.0,77,0.00,,CLR,0.00,VWS V13.01,2013-09-05 16:03:00,
2013-09-05 12:08:00,70.8,62.9,30.40,WNW,292,1.3,0.0,76,0.00,,CLR,0.00,VWS V13.01,2013-09-05 16:08:00,
2013-09-05 12:13:00,71.4,63.1,30.40,WSW,248,2.4,0.0,75,0.00,,CLR,0.00,VWS V13.01,2013-09-05 16:13:00,
2013-09-05 12:18:00,71.6,63.0,30.40,West,270,2.0,0.0,75,0.00,,CLR,0.00,VWS V13.01,2013-09-05 16:18:00,
2013-09-05 12:23:00,71.6,62.8,30.40,West,270,2.9,0.0,75,0.00,,CLR,0.00,VWS V13.01,2013-09-05 16:23:00,
2013-09-05 12:28:00,71.6,62.6,30.39,West,270,5.1,0.0,75,0.00,,CLR,0.00,VWS V13.01,2013-09-05 16:28:00,
2013-09-05 12:33:00,72.6,62.7,30.39,WSW,248,2.0,0.0,70,0.00,,CLR,0.00,VWS V13.01,2013-09-05 16:33:00,
2013-09-05 12:38:00,72.6,62.7,30.39,SSW,202,1.5,0.0,71,0.00,,CLR,0.00,VWS V13.01,2013-09-05 16:38:00,
2013-09-05 12:43:00,73.2,63.1,30.39,NNE,22,1.7,0.0,70,0.00,,CLR,0.00,VWS V13.01,2013-09-05 16:43:00,
2013-09-05 12:48:00,73.2,62.3,30.39,WNW,292,5.3,0.0,70,0.00,,CLR,0.00,VWS V13.01,2013-09-05 16:48:00,
2013-09-05 12:53:00,73.9,61.0,30.39,WSW,248,5.3,0.0,65,0.00,,CLR,0.00,VWS V13.01,2013-09-05 16:53:00,
2013-09-05 12:58:00,73.9,61.4,30.39,NW,315,8.5,0.0,64,0.00,,CLR,0.00,VWS V13.01,2013-09-05 16:58:00,
2013-09-05 13:03:00,74.1,60.7,30.38,NNW,338,3.1,0.0,64,0.00,,CLR,0.00,VWS V13.01,2013-09-05 17:03:00,
2013-09-05 13:08:00,74.1,60.9,30.39,NW,315,4.2,0.0,63,0.00,,CLR,0.00,VWS V13.01,2013-09-05 17:08:00,
2013-09-05 13:13:00,74.3,60.5,30.39,WNW,292,1.3,0.0,62,0.00,,CLR,0.00,VWS V13.01,2013-09-05 17:13:00,
2013-09-05 13:18:00,74.4,60.3,30.39,North,0,3.5,0.0,62,0.00,,CLR,0.00,VWS V13.01,2013-09-05 17:18:00,
2013-09-05 13:23:00,74.6,60.9,30.39,West,270,7.3,0.0,61,0.00,,CLR,0.00,VWS V13.01,2013-09-05 17:23:00,
2013-09-05 13:28:00,74.8,60.3,30.38,NW,315,2.0,0.0,63,0.00,,CLR,0.00,VWS V13.01,2013-09-05 17:28:00,
2013-09-05 13:33:00,75.0,60.3,30.39,NW,315,6.2,0.0,62,0.00,,CLR,0.00,VWS V13.01,2013-09-05 17:33:00,
2013-09-05 13:38:00,75.3,60.7,30.39,WNW,292,2.0,0.0,62,0.00,,CLR,0.00,VWS V13.01,2013-09-05 17:38:00,
2013-09-05 13:43:00,75.3,60.9,30.39,NW,315,6.9,0.0,62,0.00,,CLR,0.00,VWS V13.01,2013-09-05 17:43:00,
2013-09-05 13:48:00,75.3,60.9,30.38,WNW,292,4.2,0.0,62,0.00,,CLR,0.00,VWS V13.01,2013-09-05 17:48:00,
2013-09-05 13:53:00,75.5,61.1,30.38,NW,315,7.1,0.0,61,0.00,,CLR,0.00,VWS V13.01,2013-09-05 17:53:00,
2013-09-05 13:58:00,75.5,59.9,30.38,NW,315,7.6,0.0,61,0.00,,CLR,0.00,VWS V13.01,2013-09-05 17:58:00,
2013-09-05 14:03:00,75.5,61.1,30.39,WNW,292,2.9,0.0,61,0.00,,CLR,0.00,VWS V13.01,2013-09-05 18:03:00,
2013-09-05 14:08:00,75.0,61.4,30.39,NW,315,2.4,0.0,61,0.00,,CLR,0.00,VWS V13.01,2013-09-05 18:08:00,
2013-09-05 14:13:00,75.0,61.4,30.38,North,0,6.9,0.0,61,0.00,,CLR,0.00,VWS V13.01,2013-09-05 18:13:00,
2013-09-05 14:18:00,75.5,60.7,30.39,NW,315,3.8,0.0,62,0.00,,CLR,0.00,VWS V13.01,2013-09-05 18:18:00,
2013-09-05 14:23:00,75.5,60.7,30.38,NNW,338,4.0,0.0,62,0.00,,CLR,0.00,VWS V13.01,2013-09-05 18:23:00,
2013-09-05 14:28:00,75.5,61.8,30.38,NE,45,2.0,0.0,62,0.00,,CLR,0.00,VWS V13.01,2013-09-05 18:28:00,
2013-09-05 14:33:00,75.5,61.4,30.38,NNE,22,2.0,0.0,62,0.00,,CLR,0.00,VWS V13.01,2013-09-05 18:33:00,
2013-09-05 14:38:00,75.3,62.0,30.38,NNE,22,3.1,0.0,63,0.00,,CLR,0.00,VWS V13.01,2013-09-05 18:38:00,
2013-09-05 14:43:00,75.3,61.5,30.38,NW,315,6.0,0.0,63,0.00,,CLR,0.00,VWS V13.01,2013-09-05 18:43:00,
2013-09-05 14:48:00,75.3,61.3,30.38,NNE,22,2.0,0.0,63,0.00,,CLR,0.00,VWS V13.01,2013-09-05 18:48:00,
2013-09-05 14:53:00,75.5,61.6,30.38,North,0,1.1,0.0,61,0.00,,CLR,0.00,VWS V13.01,2013-09-05 18:53:00,
2013-09-05 14:58:00,75.5,61.1,30.38,NW,315,5.1,0.0,61,0.00,,CLR,0.00,VWS V13.01,2013-09-05 18:58:00,
2013-09-05 15:03:00,75.3,60.8,30.38,NW,315,3.1,0.0,61,0.00,,CLR,0.00,VWS V13.01,2013-09-05 19:03:00,
2013-09-05 15:08:00,75.0,61.1,30.38,NNW,338,6.7,0.0,62,0.00,,CLR,0.00,VWS V13.01,2013-09-05 19:08:00,
2013-09-05 15:13:00,75.0,60.9,30.38,NW,315,8.5,0.0,62,0.00,,CLR,0.00,VWS V13.01,2013-09-05 19:13:00,
2013-09-05 15:18:00,75.0,61.4,30.38,NW,315,0.8,0.0,62,0.00,,CLR,0.00,VWS V13.01,2013-09-05 19:18:00,
2013-09-05 15:23:00,74.8,60.5,30.37,WNW,292,3.3,0.0,62,0.00,,CLR,0.00,VWS V13.01,2013-09-05 19:23:00,
2013-09-05 15:28:00,74.8,60.3,30.38,NW,315,1.1,0.0,62,0.00,,CLR,0.00,VWS V13.01,2013-09-05 19:28:00,
2013-09-05 15:33:00,74.1,60.3,30.37,NW,315,2.6,0.0,62,0.00,,CLR,0.00,VWS V13.01,2013-09-05 19:33:00,
2013-09-05 15:38:00,74.1,60.7,30.37,NE,45,0.6,0.0,62,0.00,,CLR,0.00,VWS V13.01,2013-09-05 19:38:00,
2013-09-05 15:43:00,74.1,60.7,30.37,NW,315,1.5,0.0,63,0.00,,SCT046,0.00,VWS V13.01,2013-09-05 19:43:00,
2013-09-05 15:48:00,74.1,60.7,30.37,WSW,248,1.5,0.0,63,0.00,,SCT046,0.00,VWS V13.01,2013-09-05 19:48:00,
2013-09-05 15:53:00,73.9,61.0,30.37,NW,315,2.2,0.0,63,0.00,,SCT046,0.00,VWS V13.01,2013-09-05 19:53:00,
2013-09-05 15:58:00,74.1,60.5,30.37,NW,315,2.9,0.0,64,0.00,,SCT046,0.00,VWS V13.01,2013-09-05 19:58:00,
2013-09-05 16:03:00,74.1,60.5,30.37,NW,315,4.9,0.0,64,0.00,,BKN048,0.00,VWS V13.01,2013-09-05 20:03:00,
2013-09-05 16:08:00,74.1,60.3,30.37,West,270,5.3,0.0,64,0.00,,BKN048,0.00,VWS V13.01,2013-09-05 20:08:00,
2013-09-05 16:13:00,73.9,60.3,30.36,NW,315,4.4,0.0,62,0.00,,BKN048,0.00,VWS V13.01,2013-09-05 20:13:00,
2013-09-05 16:18:00,73.5,60.1,30.36,NNW,338,4.0,0.0,63,0.00,,BKN048,0.00,VWS V13.01,2013-09-05 20:18:00,
2013-09-05 16:23:00,73.0,59.7,30.36,East,90,3.5,0.0,64,0.00,,BKN048,0.00,VWS V13.01,2013-09-05 20:23:00,
2013-09-05 16:28:00,72.6,60.6,30.37,NW,315,2.2,0.0,65,0.00,,BKN048,0.00,VWS V13.01,2013-09-05 20:28:00,
2013-09-05 16:33:00,72.5,60.5,30.37,WNW,292,2.2,0.0,66,0.00,,BKN048,0.00,VWS V13.01,2013-09-05 20:33:00,
2013-09-05 16:38:00,72.5,60.9,30.37,NNE,22,0.6,0.0,66,0.00,,BKN048,0.00,VWS V13.01,2013-09-05 20:38:00,
2013-09-05 16:43:00,72.5,61.0,30.37,NW,315,4.2,0.0,67,0.00,,BKN048,0.00,VWS V13.01,2013-09-05 20:43:00,
2013-09-05 16:48:00,72.5,61.4,30.37,NW,315,8.2,0.0,67,0.00,,BKN048,0.00,VWS V13.01,2013-09-05 20:48:00,
2013-09-05 16:53:00,73.2,61.4,30.37,WNW,292,0.4,0.0,66,0.00,,BKN048,0.00,VWS V13.01,2013-09-05 20:53:00,
2013-09-05 16:58:00,73.2,61.2,30.36,WSW,248,6.2,0.0,66,0.00,,BKN048,0.00,VWS V13.01,2013-09-05 20:58:00,
2013-09-05 17:03:00,73.9,61.4,30.37,WNW,292,3.5,0.0,65,0.00,,SCT055,0.00,VWS V13.01,2013-09-05 21:03:00,
2013-09-05 17:08:00,73.9,61.4,30.36,NW,315,4.0,0.0,65,0.00,,SCT055,0.00,VWS V13.01,2013-09-05 21:08:00,
2013-09-05 17:13:00,73.9,61.4,30.36,NNW,338,6.0,0.0,64,0.00,,SCT055,0.00,VWS V13.01,2013-09-05 21:13:00,
2013-09-05 17:18:00,73.9,60.8,30.36,WSW,248,5.8,0.0,64,0.00,,SCT055,0.00,VWS V13.01,2013-09-05 21:18:00,
2013-09-05 17:24:00,73.4,60.6,30.36,NW,315,10.2,0.0,64,0.00,,SCT055,0.00,VWS V13.01,2013-09-05 21:24:00,
2013-09-05 17:29:00,73.2,60.1,30.36,NNW,338,1.7,0.0,64,0.00,,SCT055,0.00,VWS V13.01,2013-09-05 21:29:00,
2013-09-05 17:34:00,73.0,60.5,30.36,West,270,0.6,0.0,64,0.00,,BKN055,0.00,VWS V13.01,2013-09-05 21:34:00,
2013-09-05 17:39:00,73.0,59.6,30.36,NW,315,6.9,0.0,64,0.00,,BKN055,0.00,VWS V13.01,2013-09-05 21:39:00,
2013-09-05 17:44:00,73.0,59.9,30.36,NW,315,7.1,0.0,64,0.00,,BKN055,0.00,VWS V13.01,2013-09-05 21:44:00,
2013-09-05 17:49:00,73.0,60.3,30.36,WNW,292,5.1,0.0,64,0.00,,BKN055,0.00,VWS V13.01,2013-09-05 21:49:00,
2013-09-05 17:54:00,72.3,60.4,30.36,NW,315,3.1,0.0,66,0.00,,BKN055,0.00,VWS V13.01,2013-09-05 21:54:00,
2013-09-05 17:59:00,71.9,60.2,30.36,NW,315,5.3,0.0,67,0.00,,BKN055,0.00,VWS V13.01,2013-09-05 21:59:00,
2013-09-05 18:04:00,71.9,60.3,30.36,NNW,338,2.0,0.0,67,0.00,,SCT055,0.00,VWS V13.01,2013-09-05 22:04:00,
2013-09-05 18:09:00,71.2,60.1,30.36,NW,315,2.9,0.0,68,0.00,,SCT055,0.00,VWS V13.01,2013-09-05 22:09:00,
2013-09-05 18:14:00,70.8,60.1,30.36,NW,315,2.2,0.0,68,0.00,,SCT055,0.00,VWS V13.01,2013-09-05 22:14:00,
2013-09-05 18:19:00,70.8,60.1,30.36,WNW,292,2.6,0.0,69,0.00,,SCT055,0.00,VWS V13.01,2013-09-05 22:19:00,
2013-09-05 18:24:00,70.8,60.1,30.36,NW,315,2.9,0.0,68,0.00,,SCT055,0.00,VWS V13.01,2013-09-05 22:24:00,
2013-09-05 18:29:00,70.8,60.1,30.36,NW,315,6.4,0.0,69,0.00,,SCT055,0.00,VWS V13.01,2013-09-05 22:29:00,
2013-09-05 18:34:00,70.8,60.1,30.37,NW,315,2.4,0.0,69,0.00,,SCT055,0.00,VWS V13.01,2013-09-05 22:34:00,
2013-09-05 18:39:00,70.8,60.3,30.36,WNW,292,0.4,0.0,69,0.00,,SCT055,0.00,VWS V13.01,2013-09-05 22:39:00,
2013-09-05 18:44:00,71.0,60.1,30.37,NW,315,3.1,0.0,69,0.00,,CLR,0.00,VWS V13.01,2013-09-05 22:44:00,
2013-09-05 18:49:00,70.5,59.8,30.36,NW,315,2.9,0.0,69,0.00,,CLR,0.00,VWS V13.01,2013-09-05 22:49:00,
2013-09-05 18:54:00,70.5,60.1,30.36,NW,315,1.3,0.0,69,0.00,,CLR,0.00,VWS V13.01,2013-09-05 22:54:00,
2013-09-05 18:59:00,70.3,60.1,30.36,NW,315,1.3,0.0,70,0.00,,CLR,0.00,VWS V13.01,2013-09-05 22:59:00,
2013-09-05 19:04:00,70.1,59.9,30.37,NNE,22,57.0,0.0,70,0.00,,CLR,0.00,VWS V13.01,2013-09-05 23:04:00,
2013-09-05 19:10:00,69.6,59.8,30.36,NW,315,57.0,0.0,71,0.00,,CLR,0.00,VWS V13.01,2013-09-05 23:10:00,
2013-09-05 19:15:00,69.0,59.6,30.36,NW,315,57.0,0.0,71,0.00,,CLR,0.00,VWS V13.01,2013-09-05 23:15:00,
2013-09-05 19:20:00,68.7,59.2,30.36,NNW,338,57.0,0.0,72,0.00,,CLR,0.00,VWS V13.01,2013-09-05 23:20:00,
2013-09-05 19:25:00,68.5,58.9,30.37,NNW,338,57.0,0.0,72,0.00,,CLR,0.00,VWS V13.01,2013-09-05 23:25:00,
2013-09-05 19:30:00,67.8,59.1,30.37,NNW,338,57.0,0.0,73,0.00,,CLR,0.00,VWS V13.01,2013-09-05 23:30:00,
2013-09-05 19:35:00,67.6,59.1,30.37,NNW,338,57.0,0.0,73,0.00,,CLR,0.00,VWS V13.01,2013-09-05 23:35:00,
2013-09-05 19:40:00,68.5,58.6,30.37,NNW,338,57.0,0.0,72,0.00,,CLR,0.00,VWS V13.01,2013-09-05 23:40:00,
2013-09-05 19:45:00,68.5,58.3,30.36,NNW,338,57.0,0.0,72,0.00,,CLR,0.00,VWS V13.01,2013-09-05 23:45:00,
2013-09-05 19:50:00,68.5,58.5,30.37,NW,315,57.0,0.0,72,0.00,,CLR,0.00,VWS V13.01,2013-09-05 23:50:00,
2013-09-05 19:55:00,68.5,58.2,30.36,NW,315,57.0,0.0,72,0.00,,CLR,0.00,VWS V13.01,2013-09-05 23:55:00,
2013-09-05 20:00:00,66.0,59.1,30.37,NW,315,57.0,0.0,75,0.00,,CLR,0.00,VWS V13.01,2013-09-06 00:00:00,
2013-09-05 20:05:00,65.8,59.1,30.37,NW,315,57.0,0.0,76,0.00,,CLR,0.00,VWS V13.01,2013-09-06 00:05:00,
2013-09-05 20:11:00,65.6,57.7,30.37,NW,315,57.0,0.0,76,0.00,,CLR,0.00,VWS V13.01,2013-09-06 00:11:00,
2013-09-05 20:16:00,65.6,57.7,30.37,NW,315,57.0,0.0,76,0.00,,CLR,0.00,VWS V13.01,2013-09-06 00:16:00,
2013-09-05 20:21:00,65.1,57.7,30.37,NW,315,57.0,0.0,77,0.00,,CLR,0.00,VWS V13.01,2013-09-06 00:21:00,
2013-09-05 20:26:00,64.9,57.5,30.37,NW,315,57.0,0.0,77,0.00,,CLR,0.00,VWS V13.01,2013-09-06 00:26:00,
2013-09-05 20:31:00,64.9,57.5,30.37,NW,315,57.0,0.0,77,0.00,,CLR,0.00,VWS V13.01,2013-09-06 00:31:00,
2013-09-05 20:36:00,64.5,57.5,30.37,NW,315,57.0,0.0,78,0.00,,CLR,0.00,VWS V13.01,2013-09-06 00:36:00,
2013-09-05 20:41:00,64.5,57.4,30.37,NW,315,57.0,0.0,78,0.00,,CLR,0.00,VWS V13.01,2013-09-06 00:41:00,
2013-09-05 20:46:00,64.5,57.6,30.38,NW,315,57.0,0.0,78,0.00,,CLR,0.00,VWS V13.01,2013-09-06 00:46:00,
2013-09-05 20:51:00,64.2,57.6,30.38,NW,315,57.0,0.0,79,0.00,,CLR,0.00,VWS V13.01,2013-09-06 00:51:00,
2013-09-05 20:56:00,64.2,57.6,30.38,NW,315,57.0,0.0,79,0.00,,CLR,0.00,VWS V13.01,2013-09-06 00:56:00,
2013-09-05 21:01:00,64.2,57.4,30.38,NW,315,57.0,0.0,79,0.00,,CLR,0.00,VWS V13.01,2013-09-06 01:01:00,
2013-09-05 21:06:00,64.0,57.3,30.38,NW,315,57.0,0.0,79,0.00,,SCT050,0.00,VWS V13.01,2013-09-06 01:06:00,
2013-09-05 21:11:00,64.0,57.3,30.38,NW,315,57.0,0.0,79,0.00,,SCT050,0.00,VWS V13.01,2013-09-06 01:11:00,
2013-09-05 21:16:00,64.0,57.3,30.38,NW,315,57.0,0.0,79,0.00,,SCT050,0.00,VWS V13.01,2013-09-06 01:16:00,
2013-09-05 21:21:00,63.5,57.2,30.38,NW,315,57.0,0.0,80,0.00,,SCT050,0.00,VWS V13.01,2013-09-06 01:21:00,
2013-09-05 21:26:00,63.3,57.0,30.38,NW,315,57.0,0.0,80,0.00,,SCT050,0.00,VWS V13.01,2013-09-06 01:26:00,
2013-09-05 21:31:00,63.1,57.0,30.38,NW,315,57.0,0.0,80,0.00,,OVC039,0.00,VWS V13.01,2013-09-06 01:31:00,
2013-09-05 21:36:00,63.1,57.0,30.38,North,0,57.0,0.0,81,0.00,,OVC039,0.00,VWS V13.01,2013-09-06 01:36:00,
2013-09-05 21:41:00,63.1,57.0,30.38,NW,315,57.0,0.0,81,0.00,,BKN039,0.00,VWS V13.01,2013-09-06 01:41:00,
2013-09-05 21:46:00,62.9,57.0,30.38,NW,315,57.0,0.0,81,0.00,,BKN039,0.00,VWS V13.01,2013-09-06 01:46:00,
2013-09-05 21:51:00,62.9,57.3,30.38,NW,315,57.0,0.0,81,0.00,,BKN039,0.00,VWS V13.01,2013-09-06 01:51:00,
2013-09-05 21:57:00,62.7,57.1,30.39,NW,315,57.0,0.0,82,0.00,,BKN039,0.00,VWS V13.01,2013-09-06 01:57:00,
2013-09-05 22:02:00,62.6,57.1,30.39,NW,315,57.0,0.0,82,0.00,,SCT033,0.00,VWS V13.01,2013-09-06 02:02:00,
2013-09-05 22:07:00,62.4,57.1,30.39,NW,315,57.0,0.0,82,0.00,,SCT033,0.00,VWS V13.01,2013-09-06 02:07:00,
2013-09-05 22:12:00,62.2,56.6,30.39,NW,315,57.0,0.0,82,0.00,,SCT033,0.00,VWS V13.01,2013-09-06 02:12:00,
2013-09-05 22:17:00,61.8,56.2,30.39,NW,315,57.0,0.0,82,0.00,,SCT033,0.00,VWS V13.01,2013-09-06 02:17:00,
2013-09-05 22:22:00,61.8,56.5,30.39,NW,315,57.0,0.0,82,0.00,,SCT033,0.00,VWS V13.01,2013-09-06 02:22:00,
2013-09-05 22:27:00,61.8,56.3,30.39,NW,315,57.0,0.0,82,0.00,,SCT033,0.00,VWS V13.01,2013-09-06 02:27:00,
2013-09-05 22:32:00,61.3,56.3,30.40,NW,315,57.0,0.0,83,0.00,,SCT033,0.00,VWS V13.01,2013-09-06 02:32:00,
2013-09-05 22:37:00,61.3,55.9,30.40,NW,315,57.0,0.0,83,0.00,,SCT033,0.00,VWS V13.01,2013-09-06 02:37:00,
2013-09-05 22:42:00,61.3,55.9,30.40,NW,315,57.0,0.0,83,0.00,,SCT033,0.00,VWS V13.01,2013-09-06 02:42:00,
2013-09-05 22:47:00,60.9,56.0,30.40,NW,315,57.0,0.0,83,0.00,,SCT033,0.00,VWS V13.01,2013-09-06 02:47:00,
2013-09-05 22:52:00,60.9,56.0,30.40,NW,315,57.0,0.0,84,0.00,,SCT033,0.00,VWS V13.01,2013-09-06 02:52:00,
2013-09-05 22:57:00,60.9,55.8,30.40,NW,315,57.0,0.0,84,0.00,,SCT033,0.00,VWS V13.01,2013-09-06 02:57:00,
2013-09-05 23:03:00,60.6,55.8,30.40,NW,315,57.0,0.0,84,0.00,,SCT033,0.00,VWS V13.01,2013-09-06 03:03:00,
2013-09-05 23:08:00,60.4,55.5,30.40,NW,315,57.0,0.0,84,0.00,,SCT033,0.00,VWS V13.01,2013-09-06 03:08:00,
2013-09-05 23:13:00,60.4,55.5,30.41,NW,315,57.0,0.0,84,0.00,,SCT033,0.00,VWS V13.01,2013-09-06 03:13:00,
2013-09-05 23:18:00,60.0,55.5,30.41,NW,315,57.0,0.0,84,0.00,,SCT033,0.00,VWS V13.01,2013-09-06 03:18:00,
2013-09-05 23:23:00,60.0,55.5,30.41,NW,315,57.0,0.0,85,0.00,,SCT033,0.00,VWS V13.01,2013-09-06 03:23:00,
2013-09-05 23:28:00,60.0,55.5,30.41,NW,315,57.0,0.0,85,0.00,,SCT033,0.00,VWS V13.01,2013-09-06 03:28:00,
2013-09-05 23:33:00,60.0,55.4,30.41,NW,315,57.0,0.0,85,0.00,,SCT033,0.00,VWS V13.01,2013-09-06 03:33:00,
2013-09-05 23:38:00,60.0,55.4,30.41,NW,315,57.0,0.0,85,0.00,,SCT033,0.00,VWS V13.01,2013-09-06 03:38:00,
2013-09-05 23:43:00,60.0,55.2,30.41,NW,315,57.0,0.0,85,0.00,,SCT035,0.00,VWS V13.01,2013-09-06 03:43:00,
2013-09-05 23:48:00,60.0,55.2,30.41,NW,315,57.0,0.0,85,0.00,,SCT035,0.00,VWS V13.01,2013-09-06 03:48:00,
2013-09-05 23:53:00,59.7,55.0,30.41,NW,315,57.0,0.0,85,0.00,,SCT035,0.00,VWS V13.01,2013-09-06 03:53:00,
2013-09-05 23:58:00,59.7,55.0,30.41,NW,315,57.0,0.0,85,0.00,,SCT035,0.00,VWS V13.01,2013-09-06 03:58:00,